Regional Weather Roundup
Issued by NWS Little Rock, AR

Home | Current Version | Previous Version | Text Only | Print | Product List | Glossary On
Versions: 1 2 3 4 5 6 7 8 9 10 11 12 13 14 15 16 17 18 19 20 21 22 23 24 25 26 27 28 29 30 31 32 33 34 35 36 37 38 39 40 41 42 43 44 45 46 47 48 49 50
000
ASUS44 KLZK 281005
RWRLZK

WEATHER ROUNDUP FOR ARKANSAS
NATIONAL WEATHER SERVICE LITTLE ROCK AR
500 AM CDT THU MAY 28 2015

NOTE: "FAIR" INDICATES FEW OR NO CLOUDS BELOW 12,000 FEET WITH NO
SIGNIFICANT WEATHER AND/OR OBSTRUCTIONS TO VISIBILITY.

ARZ001-003-010-029-281100-
NORTHWEST ARKANSAS

CITY           SKY/WX    TMP DP  RH WIND       PRES   REMARKS
FAYETTEVILLE   PTCLDY    60  60 100 CALM      30.09F
FORT SMITH     MOCLDY    69  66  90 NE3       30.08R
HARRISON       FOG       64  64 100 SE7       30.12R VSB 1/4
BENTONVILLE    PTCLDY   N/A N/A N/A E5        30.09S
ROGERS         PTCLDY    65  64  97 E7        30.10F
SILOAM SPGS    PTCLDY    63  55  77 E5        30.09S
$$

ARZ004-005-016-281100-
NORTH CENTRAL ARKANSAS

CITY           SKY/WX    TMP DP  RH WIND       PRES   REMARKS
BATESVILLE     CLOUDY    70  66  88 CALM      30.10S
FLIPPIN        CLOUDY    68  66  94 CALM      30.10R
MTN HOME       CLOUDY    67  67 100 S3        30.11R FOG
$$

ARZ040-041-281100-
WEST CENTRAL ARKANSAS

CITY           SKY/WX    TMP DP  RH WIND       PRES   REMARKS
MENA           MOCLDY    64  63  94 CALM      30.12R
MOUNT IDA      PTCLDY    68  66  93 CALM      30.09R
$$

ARZ009-017-025-026-028-281100-
NORTHEAST ARKANSAS

CITY           SKY/WX    TMP DP  RH WIND       PRES   REMARKS
CORNING        CLOUDY    66  66 100 NE5       30.13S
JONESBORO      CLOUDY    66  66 100 CALM      30.11S
NEWPORT        MOCLDY    67  67 100 CALM      30.12R
WALNUT RIDGE   PTCLDY    66  64  94 CALM      30.12R
BLYTHEVILLE    CLOUDY    67  67 100 S6        30.12S
$$

ARZ022-023-033-042-044-281100-
CENTRAL ARKANSAS

CITY           SKY/WX    TMP DP  RH WIND       PRES   REMARKS
LITTLE ROCK    FOG       71  68  90 S7        30.11R VSB 1
N LITTLE ROCK    N/A     70  70 100 S6        30.11R
JACKSONVILLE   CLOUDY    71  70  96 SW1       30.10S
HOT SPRINGS    MOCLDY    70  67  90 E3        30.10S
RUSSELLVILLE   CLEAR     69  68  96 CALM      30.09R
CLINTON        CLOUDY    70  70 100 CALM      30.13R FOG
$$

ARZ036-281100-
EAST ARKANSAS

CITY           SKY/WX    TMP DP  RH WIND       PRES   REMARKS
$$

ARZ050-053-066-070-073-281100-
SOUTHWEST ARKANSAS

CITY           SKY/WX    TMP DP  RH WIND       PRES   REMARKS
CAMDEN         FOG       64  63  94 CALM      30.10R VSB<1/4
TEXARKANA      PTCLDY    70  69  97 SE5       30.09S
EL DORADO      CLEAR     65  64  97 CALM      30.09S
DE QUEEN       MOCLDY    68  67  96 E18       30.07S
$$

ARZ056-057-069-281100-
SOUTHEAST ARKANSAS

CITY           SKY/WX    TMP DP  RH WIND       PRES   REMARKS
PINE BLUFF     FOG       69  69 100 S6        30.10S VSB 1/2
STUTTGART      MOCLDY    70  66  88 S6        30.10S
MONTICELLO     FOG       66  66 100 CALM      30.10R VSB 1/2

$$





USA.gov is the U.S. government's official web portal to all federal, state and local government web resources and services.